Temp_Advection
nan nan nan nan nan nan nan nan nan nan nan nan nan nan nan nan nan nan nan nan nan nan
nan 0 0 0 0 -0 -0 -0 -0 0 -0 -0 -0 -0 -0 -0 -0 -0 -0 -0 -0 nan
nan 0 0 0 -0 -0 -0 -0 -0 -0 -0 -0 -0 -0 -0 -0 -0 -0 -0 -0 -0 nan
nan 0 0 -0 -0 -0 -0 -0 -0 -0 -0 -0 -0 -0 -0 -0 -0 -0 -1 -0 -0 nan
nan 0 0 -0 -0 -0 -0 -0 -0 -0 -0 -0 -0 -0 -0 -0 -0 -0 -0 -0 -0 nan
nan 0 0 -0 -0 -0 -0 -0 -0 -0 -0 -0 -0 -0 -0 -0 -0 -0 -0 -0 -0 nan
nan 0 0 -0 -0 -0 -0 -0 -0 -0 -0 -0 -0 -0 -0 -0 -0 -0 0 -0 0 nan
nan 0 0 -0 -0 -0 -0 -0 -0 -0 -0 -0 -0 -0 -0 -0 -0 -0 -0 -0 -0 nan
nan 0 0 -0 -0 -0 -0 -0 -0 -0 -0 -0 -0 -0 0 0 -0 -0 -0 -0 -0 nan
nan 0 0 -0 -0 -0 -0 -0 -0 -0 -0 -0 -0 -0 0 1 0 -0 -0 -0 -0 nan
nan 0 -0 -0 -0 -0 -0 -0 -0 -0 -0 -0 -0 -0 -0 -0 -0 -0 -0 -0 -0 nan
nan 0 -0 -0 -0 -0 -0 -0 -0 0 0 -0 -0 -0 -0 -0 -0 -0 -0 0 0 nan
nan -0 -0 -0 -0 -0 -0 -0 -0 -0 0 0 -0 -0 -1 0 -0 -0 -0 -0 0 nan
nan nan nan nan nan nan nan nan nan nan nan nan nan nan nan nan nan nan nan nan nan nan
Wind_Speed
16 13 10 6 2 3 8 12 14 13 11 12 15 17 19 21 23 24 24 25 25 24
15 12 8 4 2 5 9 12 12 11 12 14 17 19 22 23 24 24 26 26 26 28
14 10 5 1 4 8 11 11 10 11 13 16 19 21 23 23 24 26 26 27 30 31
12 8 3 2 6 9 10 9 10 13 16 19 21 22 23 25 26 26 28 30 31 32
9 5 1 4 7 8 8 9 12 15 18 20 22 23 25 27 26 28 29 29 31 33
8 4 2 5 7 7 8 11 14 17 19 21 23 25 26 26 27 26 27 30 33 35
6 3 3 5 6 7 10 13 16 18 20 22 24 26 26 27 27 29 30 31 33 34
5 2 4 5 6 9 12 16 17 19 21 23 25 26 27 26 28 30 32 31 32 34
4 3 4 6 8 11 14 16 18 20 23 24 25 26 25 25 28 30 31 33 36 36
3 3 5 7 10 13 15 17 19 21 23 25 26 27 29 28 28 30 33 33 32 35
3 4 5 9 12 14 16 18 21 22 24 26 28 29 30 29 29 32 31 32 32 35
3 4 7 10 13 15 17 19 21 24 26 27 29 28 28 26 30 32 34 33 34 34
2 5 8 11 14 17 18 21 23 24 26 27 28 27 27 24 28 34 35 37 40 36
2 6 9 13 16 18 20 23 25 27 27 27 28 28 26 23 26 31 35 39 39 43
Wind_Direction
166 166 167 171 193 315 331 333 334 332 330 327 325 324 324 324 324 323 322 321 319 316
170 173 177 185 276 329 334 331 329 326 325 323 322 322 322 323 324 322 322 321 318 317
176 175 181 211 336 332 329 329 325 321 319 319 321 322 324 324 324 322 323 321 320 320
174 176 177 328 327 327 327 324 320 319 321 323 324 325 325 325 325 324 323 321 322 324
175 173 204 317 325 326 321 321 322 323 324 324 325 327 327 325 325 323 322 323 323 324
176 184 282 321 322 320 323 324 324 324 326 328 328 327 326 324 325 325 323 322 322 323
183 215 302 318 324 324 325 326 326 328 331 330 328 327 327 329 328 324 321 321 320 322
197 255 310 320 322 325 327 328 330 330 330 330 328 330 331 329 323 321 320 319 317 318
215 278 308 319 323 327 329 331 332 331 331 331 330 331 330 327 322 321 317 316 316 321
226 291 307 320 329 330 332 334 333 333 333 332 332 332 329 328 322 313 315 319 324 324
251 288 318 329 330 332 333 334 335 334 334 333 333 331 330 328 321 323 326 329 328 327
260 303 324 330 332 333 334 334 334 335 335 332 334 333 334 333 329 330 330 330 329 327
257 316 329 333 335 335 333 332 331 332 332 333 332 338 339 334 331 326 329 327 330 328
293 325 332 336 334 332 330 330 330 331 332 332 337 341 340 334 330 327 324 327 324 327
Height
1480 1482 1483 1485 1486 1487 1486 1484 1482 1480 1478 1476 1474 1471 1468 1464 1460 1457 1453 1450 1447 1443
1480 1482 1483 1484 1485 1485 1483 1482 1480 1478 1476 1474 1471 1468 1464 1460 1456 1452 1449 1445 1441 1437
1479 1481 1482 1483 1482 1482 1481 1480 1478 1476 1473 1471 1468 1464 1460 1456 1452 1448 1444 1440 1436 1431
1478 1480 1481 1481 1481 1480 1479 1477 1475 1473 1470 1467 1463 1459 1455 1451 1447 1443 1439 1435 1430 1426
1477 1478 1479 1479 1479 1478 1476 1474 1472 1469 1466 1463 1459 1455 1450 1446 1442 1438 1433 1429 1424 1420
1475 1477 1477 1477 1477 1475 1473 1471 1469 1466 1462 1458 1454 1450 1446 1442 1437 1433 1429 1424 1419 1414
1474 1475 1475 1475 1474 1472 1470 1468 1465 1462 1459 1454 1450 1446 1441 1436 1431 1427 1423 1419 1414 1409
1473 1473 1474 1473 1471 1470 1467 1465 1461 1458 1455 1451 1446 1440 1435 1431 1426 1422 1417 1413 1408 1403
1471 1472 1471 1470 1469 1467 1465 1462 1458 1454 1450 1446 1441 1436 1432 1427 1422 1417 1412 1406 1401 1396
1469 1469 1469 1468 1466 1464 1461 1458 1455 1451 1446 1442 1437 1432 1427 1423 1417 1412 1407 1401 1396 1390
1467 1467 1466 1465 1463 1461 1458 1455 1451 1447 1442 1437 1433 1427 1422 1417 1411 1406 1401 1396 1391 1385
1465 1465 1464 1463 1460 1457 1455 1451 1447 1442 1437 1432 1428 1423 1417 1412 1406 1400 1395 1390 1385 1380
1463 1463 1461 1459 1457 1454 1451 1447 1442 1438 1434 1428 1423 1418 1413 1409 1403 1396 1389 1384 1378 1374
1461 1460 1458 1456 1453 1450 1447 1443 1438 1433 1429 1425 1419 1413 1409 1406 1401 1394 1386 1379 1373 1368